Home > Weather > Sandnessjøen > Past weeks

Flag for Norway Past Weather in Sandnessjøen, Norway — Yesterday and Last 2 Weeks

Now
52 °F

Light rain. Passing clouds.


Feels Like: 52 °F
Forecast: 52 / 55 °F
Wind: 2 mph from North

Location: Sandnessjoen / Stokka

Current Time: Aug 25, 2016 at 1:31:48 AM

Latest Report: Aug 24, 2016 at 10:20 PM


Visibility: N/A

Pressure: 29.95 "Hg

Humidity: 94%

Dew Point: 50 °F

Location of SandnessjøenLocation

Past Weather in Sandnessjøen — Graph

°F

Sandnessjøen Temperature Yesterday

Maximum temperature yesterday: 59 °F (at 3:20 PM)
Minimum temperature yesterday: 50 °F (at 4:50 AM)
Average temperature yesterday: 54 °F

High & Low Weather Summary for the Past Weeks

 TemperatureHumidityPressure
High73 °F (Aug 18, 3:20 PM)100% (Aug 16, 4:50 AM)30.30 "Hg (Aug 16, 4:50 AM)
Low43 °F (Aug 16, 5:20 AM)47% (Aug 18, 3:20 PM)29.56 "Hg (Aug 13, 5:50 AM)
Average56 °F74%29.98 "Hg
* Reported Aug 9 10:20 PM — Aug 24 10:20 PM, Sandnessjøen, Weather by CustomWeather, © 2016

Note: Actual official high and low records may vary slightly from our data, if they occured in-between our weather recording intervals... More about our weather records

Advertising

Sandnessjøen Weather History for the Previous 24 Hours

Scroll right to see more
 ConditionsComfort  
Time TempWeatherWind HumidityBarometerVisibility
10:20 PM
Wed, Aug 24
52 °FLight rain. Passing clouds.2 mph94%29.95 "HgN/A
9:50 PM52 °FLight rain. Cloudy.2 mph94%29.98 "HgN/A
9:20 PM52 °FLight rain. Partly sunny.No wind94%29.98 "HgN/A
8:50 PM54 °FLight rain. Partly sunny.3 mph82%29.98 "HgN/A
8:20 PM54 °FLight rain. Partly sunny.5 mph88%30.01 "HgN/A
7:50 PM55 °FLight rain. Partly sunny.5 mph88%30.01 "HgN/A
7:20 PM55 °FLight rain. Partly sunny.3 mph88%30.01 "HgN/A
6:50 PM55 °FSunny.2 mph88%30.04 "Hg10 mi
6:20 PM57 °FSunny.2 mph82%30.01 "Hg10 mi
5:20 PM57 °FSunny.5 mph72%30.04 "Hg10 mi
4:50 PM57 °FSunny.6 mph77%30.04 "Hg10 mi
4:20 PM57 °FSunny.6 mph72%30.07 "Hg10 mi
3:50 PM59 °FSunny.5 mph68%30.07 "Hg10 mi
3:20 PM59 °FSunny.5 mph68%30.09 "Hg10 mi
2:50 PM57 °FSunny.7 mph72%30.09 "Hg10 mi
1:20 PM55 °FPassing clouds.8 mph67%30.12 "HgN/A
12:50 PM57 °FSunny.7 mph63%30.15 "Hg10 mi
12:20 PM55 °FPassing clouds.6 mph67%30.15 "HgN/A
11:50 AM55 °FPassing clouds.5 mph59%30.15 "HgN/A
11:20 AM54 °FPassing clouds.3 mph63%30.18 "HgN/A
10:50 AM54 °FPassing clouds.6 mph67%30.18 "HgN/A
10:20 AM54 °FPassing clouds.6 mph63%30.18 "HgN/A
9:50 AM54 °FPassing clouds.7 mph63%30.21 "HgN/A
9:20 AM52 °FPassing clouds.6 mph67%30.21 "HgN/A
8:50 AM52 °FPassing clouds.8 mph67%30.21 "HgN/A
8:20 AM52 °FPartly sunny.5 mph67%30.24 "HgN/A
7:50 AM52 °FPartly sunny.6 mph72%30.24 "HgN/A
7:20 AM50 °FPartly sunny.5 mph71%30.24 "HgN/A
6:50 AM52 °FPartly sunny.8 mph72%30.24 "HgN/A
6:20 AM50 °FPartly sunny.5 mph76%30.24 "HgN/A
5:20 AM50 °FPassing clouds.2 mph71%30.27 "HgN/A
4:50 AM50 °FPassing clouds.3 mph76%30.27 "HgN/A
Weather by CustomWeather, © 2016

See weather overviewHow to use our weather pages